Theta_e
348 351 353 352 353 355 353 351 351 350 349 349 349 348 348 348 348 347 348 348 346 351 352 352 350 348 348 350 346 346 346 345 345 344 343 343 343 341 340 341 341 341 341 342 343 343 344 344 343 342 343 341 341 343 346 345 344 343 343 341 340 337
349 353 352 350 351 352 352 351 351 351 350 352 350 349 351 351 348 349 347 350 348 348 349 349 350 348 350 349 348 345 345 344 344 343 343 342 341 340 341 341 340 340 340 341 341 342 344 345 344 343 342 343 342 345 346 347 345 342 340 342 340 339
352 352 351 348 348 352 351 351 350 347 347 346 348 349 348 349 349 350 350 349 348 349 350 350 348 346 349 344 347 344 344 343 343 343 342 341 340 341 341 340 340 340 339 338 341 342 342 343 345 343 343 343 347 345 347 347 345 344 342 341 340 338
351 350 348 347 347 348 349 348 347 344 344 348 348 349 351 351 349 349 349 350 350 352 350 348 344 345 345 345 345 344 343 343 342 342 341 340 340 340 340 339 339 337 339 339 340 340 340 342 345 347 347 345 345 345 346 346 342 344 343 340 340 339
350 351 349 346 347 346 349 348 346 343 347 348 348 348 347 348 349 350 351 350 347 347 344 344 346 344 342 343 343 344 344 342 343 343 341 342 339 336 339 336 337 339 339 338 337 339 340 340 343 345 347 346 345 345 344 345 343 343 343 343 342 341
347 350 351 349 348 347 349 348 346 345 349 347 346 346 347 348 348 350 348 348 345 345 344 342 343 341 342 342 342 340 341 341 340 341 343 341 340 338 340 340 341 339 338 338 338 339 339 340 341 343 345 346 344 344 343 343 343 343 344 343 343 341
347 348 345 348 350 347 350 347 344 347 349 348 348 347 346 347 348 348 349 348 347 346 343 341 342 343 343 344 343 342 341 341 342 340 343 343 342 342 340 339 339 340 339 338 337 338 339 340 341 341 343 343 344 343 344 342 343 343 343 341 342 342
346 347 344 346 347 350 347 345 345 345 348 346 346 346 347 348 349 349 351 351 351 348 344 341 343 342 342 345 343 345 344 342 342 342 344 343 340 340 339 341 342 341 339 338 337 338 336 337 339 342 342 343 343 344 344 343 344 345 342 343 342 343
347 346 347 348 350 347 347 347 344 347 347 344 345 346 349 350 349 349 351 351 350 347 345 344 343 342 343 344 344 344 341 340 342 340 343 342 341 340 340 340 341 341 341 341 341 339 338 338 339 341 342 342 343 343 344 345 345 345 344 345 342 343
346 346 347 349 348 348 346 345 344 345 347 347 346 347 346 346 351 350 349 347 349 351 346 344 343 342 341 341 341 345 344 342 342 342 344 341 342 342 340 341 341 343 341 341 341 340 339 337 336 340 340 342 341 342 344 343 344 344 345 345 341 345
348 347 346 345 344 347 348 347 347 345 347 347 346 347 345 347 347 348 348 349 344 347 347 345 344 342 342 339 341 343 342 343 342 343 343 342 344 344 343 341 344 342 342 342 342 342 342 340 339 337 340 340 341 343 343 344 343 343 343 345 340 341
346 343 340 339 341 342 346 348 346 343 344 343 345 345 344 347 347 347 349 347 349 348 348 347 345 344 343 341 341 341 341 341 340 341 343 343 343 344 343 343 346 346 345 345 343 343 345 343 342 339 339 340 342 342 341 342 342 343 342 342 338 342
340 340 337 335 339 340 341 341 344 343 341 343 344 344 343 345 346 347 343 350 348 347 346 346 346 345 343 341 342 341 341 340 341 342 343 344 345 345 343 342 344 344 343 344 343 343 342 343 342 343 344 341 342 338 339 340 341 342 343 340 337 336
338 336 336 337 336 338 338 339 344 342 343 343 343 343 345 345 347 347 348 348 349 347 346 346 345 343 342 341 342 341 340 340 342 342 343 344 342 342 341 341 341 342 340 341 340 342 340 340 339 341 343 343 341 343 342 339 346 342 337 337 340 338
336 336 337 337 337 337 338 339 340 341 341 340 341 342 345 344 346 345 343 348 348 347 346 346 345 343 342 342 341 342 341 341 344 345 342 343 343 343 341 341 339 340 340 339 340 341 341 341 340 339 341 343 343 341 344 342 342 337 338 340 343 342
336 337 337 338 338 339 338 340 340 340 342 340 341 341 341 344 341 342 342 343 346 346 346 346 346 346 343 343 343 344 343 343 343 343 343 343 343 342 341 340 340 340 336 336 338 338 339 339 339 338 339 340 340 340 340 340 336 337 339 340 342 343
336 338 337 337 338 339 338 338 339 339 339 343 342 341 340 343 341 342 341 344 344 345 346 345 346 346 345 343 343 344 344 344 344 343 342 342 341 342 341 339 339 340 340 336 335 337 338 338 337 338 339 339 339 339 339 337 335 336 339 340 341 342
339 339 337 335 337 337 338 339 339 338 341 342 342 339 341 342 342 343 344 343 345 345 346 345 344 343 345 344 345 345 345 344 342 341 342 342 340 342 341 339 337 338 339 339 336 336 336 337 337 336 337 336 338 338 338 335 337 336 341 340 340 341
338 339 337 337 337 337 338 336 339 336 340 342 341 342 342 339 339 343 343 343 343 345 343 341 343 345 346 345 345 345 343 342 342 340 341 340 341 341 342 339 337 337 338 338 336 337 338 337 336 335 335 336 337 338 339 338 339 340 339 340 340 340
339 339 338 335 336 336 338 339 336 338 337 339 341 339 341 341 343 343 343 340 340 342 342 341 343 347 347 345 344 343 343 343 342 343 341 339 339 339 340 340 338 336 335 334 336 336 337 336 336 336 335 337 338 339 339 338 338 338 338 340 340 339
337 338 336 334 334 336 333 335 336 334 332 334 335 339 339 340 341 342 343 341 339 340 344 346 346 346 346 344 344 344 344 344 343 343 343 341 342 341 342 341 339 337 335 334 333 336 337 337 334 332 335 335 336 338 339 339 337 337 336 337 338 338
335 338 337 336 335 336 338 336 334 332 333 334 335 335 337 340 341 342 343 344 346 346 346 346 345 345 345 344 343 342 343 343 343 342 342 342 342 340 341 340 339 336 337 333 334 336 336 336 331 329 328 329 332 334 336 336 334 334 336 335 336 336
336 335 336 336 338 339 340 341 338 336 336 335 338 339 339 341 342 343 346 346 347 347 345 344 343 343 345 343 343 343 342 342 342 341 340 340 341 341 340 340 339 336 334 335 335 338 338 336 328 332 333 329 325 324 328 331 332 333 333 334 334 334
333 335 336 337 335 337 339 341 337 334 338 338 337 340 341 342 343 343 343 345 344 345 343 343 343 342 342 343 344 342 342 341 341 341 340 339 340 338 340 339 339 338 337 332 332 333 338 338 334 331 325 325 326 325 317 320 323 330 334 333 332 333
333 334 335 333 334 335 334 333 335 336 337 337 338 338 339 338 341 341 342 343 342 343 342 341 342 341 339 340 341 342 342 342 341 342 340 337 337 338 338 338 338 338 337 334 331 333 335 337 337 336 330 325 324 320 321 324 324 325 331 333 331 333
334 336 335 333 335 335 333 332 331 330 330 330 330 334 333 334 336 337 338 342 342 342 341 340 339 339 337 338 339 342 343 341 342 341 339 337 337 338 338 337 338 339 337 337 334 331 332 336 337 337 338 335 334 323 325 326 325 317 329 332 331 333
336 335 333 334 335 334 334 333 334 333 333 332 331 334 336 338 338 338 341 341 340 342 340 340 340 339 339 339 339 340 342 341 340 341 340 339 338 339 338 338 338 338 335 335 335 330 331 332 335 337 337 337 338 337 333 327 321 322 319 325 330 332
336 335 335 333 334 332 333 334 334 335 334 337 333 335 338 339 341 341 340 339 339 339 339 339 339 338 338 338 338 339 340 340 340 340 339 339 340 339 339 339 339 338 336 335 334 331 329 331 329 331 335 334 336 337 335 333 329 325 323 320 322 329
335 335 335 334 334 335 335 334 334 338 337 338 338 337 337 338 338 339 338 337 337 336 338 339 337 338 338 337 337 337 337 337 337 335 335 335 340 340 340 340 339 338 337 335 335 333 333 330 332 331 332 332 330 330 332 334 333 331 326 322 321 323
334 335 336 336 338 336 335 339 334 339 338 338 337 335 335 336 337 336 336 336 336 335 336 337 338 337 337 336 336 336 335 335 336 334 332 332 332 333 334 334 336 338 339 337 337 335 334 333 334 335 332 331 328 328 328 329 330 329 328 328 323 322
334 335 337 337 337 338 338 335 339 339 338 336 335 334 333 334 334 334 334 334 334 334 334 334 336 337 336 335 337 336 335 334 335 335 332 332 332 331 332 333 334 335 336 337 336 337 335 332 332 332 333 332 331 327 325 325 327 328 328 326 324 324
332 334 336 336 337 335 335 339 340 341 338 337 335 333 334 333 333 333 333 331 332 333 332 334 334 334 336 336 337 336 336 335 333 334 333 334 333 331 332 332 333 334 334 338 339 338 337 335 333 331 333 332 329 330 330 329 329 330 328 326 327 324
331 334 334 336 337 337 339 339 340 340 340 338 337 336 335 334 333 332 332 332 331 330 330 330 331 332 335 336 334 334 334 332 332 333 334 332 331 333 333 332 333 333 334 337 338 338 336 336 335 332 331 332 331 331 331 332 333 331 331 330 328 323
332 335 336 336 336 337 338 339 340 339 338 338 339 338 334 334 334 333 333 332 331 330 329 331 332 332 333 334 333 333 334 334 333 333 332 332 333 334 333 330 331 332 335 338 338 338 336 337 337 335 335 333 334 332 333 334 334 333 331 329 326 325
333 334 334 334 335 336 338 339 339 340 339 339 338 335 334 335 335 333 331 330 330 330 329 330 329 333 333 334 335 335 335 334 332 331 331 332 332 332 332 329 330 333 333 334 336 337 335 336 336 336 336 335 334 335 333 333 333 333 331 330 329 326
333 333 335 335 335 334 334 336 337 338 337 337 336 335 334 336 336 333 331 330 331 330 330 330 332 333 335 334 333 333 331 330 330 330 331 330 330 329 330 329 329 331 330 330 333 332 330 333 334 335 336 336 334 332 335 334 334 332 330 331 331 327
333 334 334 334 336 335 335 333 336 336 336 335 334 334 334 336 335 334 332 331 331 331 333 332 332 333 334 334 333 331 328 329 330 329 329 329 328 328 329 328 328 329 328 329 329 327 328 328 331 333 335 335 334 334 334 336 334 333 334 333 329 326
Wind_Speed
16 17 15 14 13 13 14 15 14 14 14 14 14 15 15 15 14 14 13 12 10 10 9 9 10 11 14 12 12 12 14 13 14 13 12 11 9 9 8 8 7 7 5 6 7 8 7 8 8 8 7 6 7 7 5 4 6 6 6 8 8 9
14 16 14 11 9 11 11 13 13 14 13 13 13 14 13 11 12 11 12 11 8 7 8 8 8 11 9 12 12 12 13 13 13 13 12 10 9 8 7 7 6 7 6 6 9 6 6 7 8 8 8 7 8 2 4 5 4 6 7 8 8 8
14 14 15 12 9 10 12 10 12 12 10 12 12 11 10 10 10 10 10 8 7 7 7 7 8 8 9 11 12 12 12 12 12 12 11 9 8 8 7 6 5 4 5 6 7 5 5 7 7 9 8 8 4 3 4 3 4 4 7 10 8 9
13 13 12 9 9 8 9 9 9 10 10 9 9 8 8 8 9 9 9 8 7 7 7 7 10 15 14 12 12 11 12 12 11 10 12 9 8 7 8 5 4 3 5 6 6 5 5 6 6 7 7 6 3 5 5 4 4 5 6 9 9 9
11 13 13 11 11 10 9 9 9 9 9 9 8 7 7 7 8 9 9 7 8 7 7 8 9 9 8 8 8 9 8 7 7 8 10 7 7 7 8 7 6 7 5 4 4 5 4 5 6 6 5 4 4 4 4 3 5 5 7 8 9 8
11 11 11 10 10 9 10 9 8 9 9 8 8 7 7 7 8 8 7 7 8 8 7 7 7 7 7 7 8 7 7 7 6 6 7 7 6 7 6 7 6 4 3 3 4 3 4 4 5 4 5 4 5 5 4 4 5 5 7 8 9 8
10 11 12 9 9 9 8 8 9 9 9 8 8 8 7 7 7 8 7 7 7 7 7 7 7 7 7 7 7 6 5 6 6 6 5 4 5 5 3 4 4 4 4 4 5 4 4 4 3 5 4 5 5 5 3 4 5 5 7 8 9 8
9 9 10 9 10 9 9 9 9 10 8 8 7 7 6 6 7 7 7 6 6 6 6 6 7 6 6 5 5 5 6 5 5 4 4 3 5 4 4 3 4 5 5 5 5 5 4 5 4 4 5 5 5 4 3 3 4 5 7 7 9 10
10 11 10 11 10 9 9 9 9 9 9 9 5 6 5 5 6 6 7 7 6 6 6 6 6 6 5 5 5 5 5 5 4 4 4 2 2 4 4 4 4 4 3 3 2 2 2 2 4 4 4 5 5 4 4 4 4 5 7 6 7 9
10 10 9 8 7 8 9 9 9 9 9 8 8 6 6 4 3 5 5 6 6 5 6 6 6 5 5 6 5 5 5 5 4 3 3 3 2 3 4 4 4 4 4 4 4 3 3 4 5 4 4 5 5 4 4 4 5 4 6 7 7 8
8 7 7 6 7 7 7 7 7 8 8 8 7 6 6 5 5 4 4 6 7 7 5 6 6 6 6 6 5 5 5 5 4 3 2 3 2 1 2 3 3 3 3 2 2 3 3 2 2 4 3 4 4 3 4 3 4 4 5 6 7 6
7 7 5 7 7 8 6 6 7 7 7 8 8 5 7 6 6 6 6 7 6 6 5 5 6 6 6 7 6 6 5 5 4 4 3 3 3 3 3 3 3 2 2 2 3 2 1 1 1 1 4 3 3 4 4 4 5 4 4 8 5 3
9 5 9 5 4 4 4 5 5 6 6 6 7 7 7 6 6 6 7 7 7 7 6 6 6 6 7 6 6 7 6 6 5 4 4 4 4 3 3 3 3 3 3 3 3 3 2 2 2 1 1 3 3 3 4 6 4 5 5 9 5 3
11 11 12 10 7 7 6 5 4 5 5 4 5 6 5 6 6 6 7 8 7 8 7 6 7 7 6 6 6 6 6 6 5 5 4 4 4 3 3 3 4 4 3 3 3 3 3 3 3 2 2 2 0 2 1 1 3 7 6 4 4 4
11 10 11 10 9 10 9 7 6 5 3 5 4 5 4 5 4 4 3 5 7 7 7 6 7 7 6 6 6 5 5 5 5 4 4 3 2 3 3 4 3 4 4 3 4 4 3 4 4 4 3 2 2 2 0 2 7 7 4 5 5 6
13 14 10 9 9 10 10 7 6 5 5 6 5 5 5 5 5 6 7 7 7 7 7 6 7 7 6 6 5 5 4 5 5 4 4 4 3 3 3 2 2 2 3 4 4 5 5 5 5 4 3 2 2 1 2 2 8 3 4 4 4 5
14 12 12 10 10 9 8 7 6 6 6 5 5 4 7 6 6 6 6 6 7 7 7 7 7 7 6 6 5 5 4 5 5 4 4 3 3 3 3 3 3 2 1 3 5 5 5 5 5 4 3 4 3 2 1 6 3 4 2 3 3 4
11 11 11 12 11 9 7 9 9 6 6 5 6 6 6 6 5 5 5 6 7 8 7 6 7 6 6 5 5 4 5 5 4 4 4 4 3 3 3 3 3 2 2 2 4 5 5 5 4 4 4 4 3 3 3 5 2 5 2 3 3 2
13 11 13 13 11 8 8 8 7 8 5 5 5 5 5 3 6 6 5 6 7 4 6 5 6 8 6 5 4 5 5 6 4 4 4 4 4 4 3 3 4 3 1 1 3 4 5 5 5 4 4 4 4 4 3 4 4 5 4 3 3 3
11 11 12 11 11 8 7 5 7 5 6 5 4 5 5 6 5 6 7 7 4 5 5 9 9 7 6 5 4 5 5 5 4 4 4 4 4 4 4 4 4 4 5 4 3 4 5 6 6 6 5 5 4 4 4 3 3 4 4 3 3 2
10 11 11 10 8 8 8 6 5 5 5 6 5 5 5 5 5 5 6 8 10 8 9 7 6 6 6 5 4 4 5 4 4 3 3 4 4 4 3 4 4 4 6 6 5 5 6 6 6 6 5 5 5 4 4 4 3 3 5 5 2 3
8 9 10 10 8 8 8 9 7 6 7 7 7 7 7 6 6 6 6 5 5 5 6 6 5 5 5 5 5 5 4 4 3 4 3 3 3 4 4 4 4 5 4 5 5 5 5 6 5 4 5 5 5 4 3 3 3 4 3 6 4 3
7 8 8 9 8 7 7 7 7 6 7 7 7 6 6 6 6 7 7 6 5 5 5 5 5 6 4 5 5 4 4 3 4 3 4 4 5 4 4 5 5 4 5 4 4 4 5 4 2 4 4 5 5 6 2 0 2 3 4 4 5 5
9 9 8 8 8 7 6 6 6 6 6 6 6 7 6 6 6 7 7 5 5 4 5 5 6 6 5 5 5 4 4 4 4 4 4 4 4 5 5 5 5 4 4 5 4 5 3 2 3 5 6 4 4 5 7 5 4 3 4 4 4 5
9 7 7 6 10 9 8 4 5 7 6 6 6 6 6 6 6 6 5 6 5 5 5 5 5 6 5 5 5 4 4 4 4 4 4 4 4 4 5 5 5 4 5 3 4 4 3 2 2 2 2 3 4 4 3 6 6 4 3 3 4 4
10 11 10 11 10 10 8 9 9 9 9 8 9 8 7 7 7 6 6 5 6 6 6 5 5 5 4 4 5 5 5 5 5 4 4 3 3 4 5 4 5 4 4 3 3 5 5 3 2 2 2 2 4 3 0 6 5 4 1 4 4 4
8 8 10 10 9 6 9 10 11 10 9 8 8 6 6 6 6 6 6 6 6 6 6 6 5 5 5 5 5 5 5 5 5 5 5 4 4 5 4 4 3 4 4 4 3 4 4 5 4 2 2 1 2 2 0 6 4 7 6 3 4 4
7 8 10 10 7 6 6 7 10 8 7 7 7 7 7 7 6 6 6 7 6 6 6 5 5 5 5 5 5 5 5 5 4 4 5 4 4 4 3 4 2 3 2 2 3 3 5 4 5 4 3 3 3 2 3 3 0 7 5 6 5 4
7 8 10 13 11 12 9 9 7 8 8 6 7 7 6 6 7 7 8 7 6 6 6 5 5 5 5 5 5 5 5 5 5 4 4 4 4 4 4 4 5 3 3 3 3 1 1 4 5 5 5 5 5 4 4 3 2 4 4 7 7 7
7 6 8 9 7 9 10 8 10 7 7 7 7 7 7 7 7 8 8 7 6 6 6 5 5 5 5 5 5 5 5 4 3 3 3 2 3 4 3 3 3 3 3 3 3 4 3 1 4 2 5 3 5 5 4 4 4 4 3 3 5 8
7 6 6 7 7 7 7 8 6 6 8 8 9 9 8 9 8 8 7 7 6 6 5 5 5 5 4 5 4 4 4 4 3 2 2 3 3 2 3 2 2 3 4 4 3 4 4 7 5 5 5 3 3 3 4 4 5 4 4 4 6 7
8 6 6 7 8 7 8 6 6 7 8 9 9 9 9 10 9 9 8 8 7 6 6 6 6 6 5 5 4 4 4 4 4 3 2 1 0 1 1 1 2 3 3 4 4 4 4 4 4 6 5 5 7 7 2 3 4 4 4 4 5 7
10 10 10 11 12 12 10 9 7 9 10 9 10 9 9 9 8 8 8 8 8 7 7 7 6 6 5 5 5 5 5 4 4 4 3 2 1 0 0 1 2 3 4 4 4 4 4 3 4 3 4 3 4 3 3 1 3 4 3 4 5 7
14 13 12 11 11 11 10 8 7 7 9 9 9 9 8 8 8 8 8 8 8 7 7 7 6 6 6 6 5 5 5 4 4 4 3 2 2 2 1 2 3 4 4 3 3 3 3 4 4 4 3 4 4 3 2 2 3 3 4 5 6 6
13 12 11 11 9 9 7 7 7 6 7 7 8 8 7 7 8 8 7 8 6 6 6 6 7 6 7 6 6 5 4 4 4 4 4 4 3 2 2 1 4 4 4 3 4 2 3 4 3 4 3 3 3 2 3 3 3 4 4 4 5 7
13 13 11 10 8 7 7 6 7 7 7 8 7 7 6 6 7 7 8 7 6 6 6 6 6 6 6 6 6 5 4 4 5 5 5 4 4 4 3 3 4 3 3 2 3 4 4 3 2 3 3 2 3 4 3 3 4 3 3 4 5 5
12 11 9 10 8 9 7 7 7 7 7 8 8 7 7 8 7 6 7 7 7 6 6 6 6 6 6 6 6 5 5 6 6 5 5 4 4 4 4 4 5 5 5 4 4 4 3 3 3 3 3 4 3 4 4 3 3 4 3 3 5 4
Wind_Direction
157 152 151 148 143 142 140 135 134 128 126 128 131 136 139 145 147 141 144 135 138 149 146 146 155 147 138 138 127 129 131 129 130 131 128 122 126 127 124 123 122 119 109 109 107 113 117 140 146 148 149 169 188 219 74 101 103 104 112 103 93 94
153 151 149 146 139 141 146 150 148 145 144 138 139 144 151 152 151 139 135 147 149 148 147 151 148 145 142 137 136 133 132 133 135 130 128 130 130 128 124 120 117 117 133 143 154 147 144 137 148 154 166 181 216 120 106 90 91 97 95 90 92 97
150 149 151 140 145 137 150 148 150 149 145 149 147 159 156 155 147 143 154 157 151 150 158 143 148 145 129 130 133 139 131 129 127 128 132 127 126 122 118 113 115 133 141 183 206 170 159 153 158 162 172 203 216 119 99 91 94 87 84 84 86 93
150 154 145 134 132 156 145 148 152 149 148 148 153 157 156 154 149 156 155 152 151 152 151 156 133 126 136 140 133 127 125 129 132 132 133 135 130 125 119 120 129 161 190 200 201 172 177 158 154 177 190 197 176 121 136 141 109 95 100 104 97 118
159 149 147 147 144 156 146 154 152 147 145 150 151 153 153 156 155 156 152 155 153 158 155 149 151 154 156 144 147 148 154 163 165 156 181 156 161 149 173 157 158 198 181 207 221 202 195 162 164 187 179 189 150 154 146 134 109 116 96 102 116 133
152 155 137 137 146 144 158 155 150 142 147 151 153 155 158 158 154 157 161 157 150 154 151 142 148 151 146 147 153 153 166 160 159 157 189 169 169 171 182 177 180 170 166 210 224 225 213 190 179 186 172 171 163 170 161 141 125 116 105 113 126 132
159 156 149 140 144 158 157 149 144 145 145 147 148 156 163 159 156 161 161 153 151 147 143 140 144 148 147 155 151 154 148 148 156 164 176 170 160 165 160 149 152 165 178 192 209 198 200 204 206 175 168 176 168 171 155 138 133 126 120 121 123 133
156 158 142 158 160 157 153 148 146 141 151 139 154 159 157 159 153 159 155 156 151 145 143 142 145 148 149 150 143 142 146 151 151 151 160 159 155 143 134 151 168 166 178 188 187 202 187 181 189 197 161 174 167 159 160 131 120 116 101 125 131 120
164 168 156 163 162 157 145 148 150 151 146 146 172 155 153 155 158 156 159 151 150 149 144 146 148 148 152 144 141 147 147 143 144 144 151 147 135 139 153 162 162 169 180 165 171 182 178 180 192 187 174 169 182 158 161 145 129 128 127 146 123 116
172 168 157 154 145 144 150 147 148 155 136 157 158 149 144 158 162 159 158 160 147 152 147 149 145 148 147 143 146 142 143 135 136 134 141 132 136 157 156 166 171 175 159 180 171 155 199 170 202 175 186 176 179 176 153 164 145 143 136 128 122 118
157 162 152 127 134 141 144 139 144 150 145 148 139 141 154 165 171 178 170 159 159 158 149 150 149 152 146 152 148 146 141 139 138 139 147 131 129 148 171 162 172 173 173 172 139 137 229 162 183 180 162 184 177 165 172 163 157 140 150 134 107 138
139 135 117 133 151 158 142 138 144 145 149 138 144 148 173 176 182 176 179 172 162 154 153 142 151 153 152 154 156 150 144 148 149 158 163 153 146 167 177 133 129 121 120 139 138 140 91 160 78 77 173 153 173 179 168 169 163 159 142 108 106 123
120 89 94 89 120 135 122 149 147 146 139 148 162 167 177 188 188 180 183 170 162 157 155 151 159 156 154 154 156 156 156 159 163 158 148 150 150 161 150 153 144 155 165 148 134 124 129 110 120 103 6 141 183 184 153 191 153 165 84 62 111 136
141 130 144 157 140 127 122 142 135 131 124 159 178 176 173 196 194 193 184 172 166 159 162 161 161 157 158 153 159 161 162 163 156 157 155 164 161 167 164 146 149 171 149 160 139 133 144 127 106 94 80 56 105 45 161 108 100 63 75 113 130 116
119 140 164 139 134 136 138 149 137 125 163 199 180 193 167 195 203 197 175 183 164 160 163 164 165 156 159 161 164 165 170 162 152 163 169 166 162 160 160 167 170 164 151 151 139 118 109 98 83 71 53 29 52 86 145 56 81 90 124 141 150 152
146 155 131 139 149 148 151 155 147 163 189 184 181 182 189 199 190 200 195 170 162 161 164 166 161 157 160 170 175 169 168 151 154 170 172 153 198 174 152 165 143 163 168 157 145 138 116 105 95 87 87 109 99 105 115 145 76 120 113 139 156 141
155 149 139 144 155 158 159 168 163 187 176 174 171 169 198 198 198 189 187 170 164 166 171 166 165 163 171 173 175 167 146 153 170 170 158 167 195 176 158 167 156 162 177 166 134 111 108 116 125 119 110 101 104 110 122 63 104 88 152 142 146 156
149 153 149 155 153 165 179 176 171 185 166 173 173 184 187 196 194 179 182 172 170 169 172 165 167 183 176 183 163 152 143 159 170 163 159 185 177 170 162 172 160 171 162 193 121 127 129 119 108 104 101 98 101 116 104 126 154 128 143 143 135 141
156 152 150 151 147 160 194 172 167 163 170 169 188 175 178 184 189 190 172 178 163 158 165 161 209 181 172 175 156 148 159 168 174 173 173 181 165 163 165 165 168 151 139 112 115 125 116 110 112 111 111 109 104 91 100 130 161 146 149 116 109 107
156 154 145 151 155 164 174 158 157 159 159 176 179 176 188 191 183 188 192 150 167 170 182 176 191 173 175 167 156 158 163 174 179 184 176 176 169 169 166 162 157 157 137 117 121 121 120 119 113 111 106 100 94 99 113 136 136 142 119 108 123 137
160 153 148 155 157 162 159 160 160 142 185 173 176 188 186 186 189 189 202 164 177 187 176 173 171 172 169 162 160 156 161 174 187 169 182 175 181 161 169 161 152 158 156 146 141 146 135 136 133 121 120 105 102 100 102 123 136 133 128 140 114 123
155 156 151 158 161 165 170 172 165 160 188 175 180 187 185 181 195 180 190 188 177 168 163 168 173 173 168 170 155 155 162 176 178 181 185 169 162 154 167 163 163 160 169 157 143 159 150 168 163 154 146 137 124 118 119 141 178 115 116 121 152 108
146 150 146 162 157 173 175 168 163 166 177 181 184 185 184 179 185 180 184 184 181 175 169 170 173 172 173 168 156 155 168 163 189 168 173 169 163 173 173 175 177 169 160 152 141 158 174 260 205 153 155 166 157 160 132 144 45 132 164 138 127 141
152 159 159 153 152 156 174 146 130 176 181 182 174 170 177 173 179 180 175 182 172 176 173 175 178 179 173 161 160 159 157 166 177 168 184 177 170 178 172 182 181 176 178 157 161 158 180 205 261 165 181 230 160 218 147 181 143 62 19 80 132 126
145 146 134 132 150 154 158 134 185 159 165 168 159 168 170 174 179 177 173 178 172 170 177 186 181 187 172 161 163 154 156 161 166 173 190 183 179 182 182 191 178 184 190 189 158 156 152 217 219 297 299 190 176 225 182 132 140 116 159 168 119 110
151 168 140 144 158 154 164 170 164 166 170 174 171 166 174 172 174 172 178 168 163 173 184 180 174 175 163 163 156 161 163 165 160 166 182 188 182 175 194 199 173 195 182 192 180 164 160 193 219 184 4 5 354 352 302 141 194 121 156 77 92 88
155 149 138 132 149 143 167 175 173 176 173 176 161 167 173 162 167 170 172 169 167 176 174 168 169 160 161 162 166 161 165 169 171 169 175 185 187 191 182 193 176 198 199 180 195 185 176 168 179 183 206 360 339 267 105 163 180 144 150 125 121 113
141 142 134 126 134 160 190 193 186 173 185 179 160 164 164 166 168 164 159 169 167 163 168 162 159 159 159 166 161 163 162 162 175 172 176 184 187 186 172 173 183 197 194 205 182 219 185 169 201 171 192 206 180 182 165 256 161 164 170 145 132 115
135 136 132 154 174 175 190 190 188 188 171 164 150 149 155 160 160 165 162 160 165 158 155 157 162 156 166 162 161 160 161 160 162 166 180 173 179 169 168 160 170 181 190 176 206 224 249 179 209 171 173 195 202 180 168 203 225 243 152 159 138 148
146 136 154 158 178 184 201 180 188 170 162 149 145 147 155 160 164 161 157 156 158 162 159 158 159 166 162 158 156 151 157 150 153 163 212 151 160 162 172 172 176 180 167 193 188 197 197 97 255 347 210 186 202 170 212 163 189 195 157 166 154 154
146 142 156 159 186 196 196 191 185 162 163 150 153 156 161 165 159 160 154 157 164 165 163 155 157 153 155 150 146 147 149 146 142 152 165 147 183 172 164 190 191 186 184 191 187 183 212 174 193 196 202 229 325 237 198 185 172 189 176 161 142 149
138 141 164 179 190 185 203 191 188 170 167 161 164 166 168 165 160 157 156 162 158 150 161 155 164 156 157 156 154 145 145 137 140 149 145 119 150 164 193 185 183 194 189 190 176 191 197 214 208 206 172 187 202 234 187 215 157 190 173 156 156 142
156 171 185 191 189 186 190 188 189 180 172 167 174 173 169 163 162 161 165 165 163 164 161 165 167 163 154 161 160 154 157 155 145 157 148 148 144 35 133 180 155 170 160 173 170 185 190 186 210 199 193 206 216 189 189 230 137 186 144 136 150 147
176 178 185 187 187 189 185 188 188 181 172 169 174 177 169 164 161 163 163 158 163 158 159 159 158 164 160 167 167 158 158 151 144 138 148 148 136 148 154 165 147 141 146 141 141 169 156 156 184 210 208 201 220 191 166 113 152 174 146 159 148 153
170 173 182 186 187 188 188 190 184 184 174 175 171 173 164 161 161 154 151 154 153 152 154 155 160 155 160 168 158 155 148 143 140 136 142 148 148 142 157 167 118 113 116 120 128 154 128 157 173 195 208 224 185 185 151 167 169 162 158 157 159 156
175 178 181 181 180 186 189 187 183 185 183 180 174 169 151 147 147 149 148 152 148 153 153 157 159 157 163 164 155 148 149 141 138 140 144 147 160 140 127 125 116 120 121 124 128 130 131 152 170 181 193 197 197 163 162 153 170 142 163 137 156 157
183 177 170 181 178 181 182 181 179 184 185 180 175 166 153 146 140 145 153 154 155 157 149 161 156 161 162 160 154 153 146 137 140 140 137 139 133 122 127 118 115 121 118 122 117 109 107 120 122 173 166 182 196 144 158 149 154 140 126 155 147 153